Cosmos 1674 Rocket - Orbit

View from above orbital plane
View from above orbital plane
View from above satellite
View from above satellite

Ground track
Ground track

The orbit data is extracted from the following two-line orbital elements,

1 15945U 85069B   13139.49402318  .00000434  00000-0  50290-4 0  3388
2 15945 082.5288 087.3738 0021197 152.3218 329.7466 14.82998535500160
Epoch (UTC): 19 May 2013 11:51:23
Eccentricity: 0.0021197
inclination: 82.5288°
perigee height: 605 km
apogee height: 635 km
right ascension of ascending node: 87.3738°
argument of perigee: 152.3218°
revolutions per day: 14.82998535
mean anomaly at epoch: 329.7466°
orbit number at epoch: 50016

The dashed part of the orbit path shows where the satellite is in the earth's shadow,  

Developed and maintained by Chris Peat, Heavens-Above GmbH. Please read the updated FAQ before sending e-mail. Imprint. DLR